Fort Polk, LA

7:48 PM CST on February 21, 2018 (GMT -0600)
Polk Army Air Field

Weather History for KPOE - January, 2013

Change the Weather History Date:

Thursday, January 24, 2013

  Actual Average Record
Temperature  
Mean Temperature 64 °F -  
Max Temperature 72 °F 58 °F 78 °F (1997)
Min Temperature 55 °F 39 °F 19 °F (2003)
Degree Days  
Heating Degree Days 2    
Growing Degree Days 14 (Base 50)    
Moisture  
Dew Point 57 °F    
Average Humidity 86    
Maximum Humidity 100    
Minimum Humidity 64    
Precipitation  
Precipitation 0.00 in - - ()
Sea Level Pressure  
Sea Level Pressure 30.25 in    
Wind  
Wind Speed 4 mph (SSW)    
Max Wind Speed 10 mph    
Max Gust Speed 17 mph    
Visibility 9 miles    
Events      
Averages and records for this station are not official NWS values.
T = Trace of Precipitation, MM = Missing Value Source: NWS Daily Summary

Daily Weather History Graph

Daily Weather History Graph

Search for Another Location

Airport or City:

Trip Planner

Search our weather history database for the weather conditions in past years. The results will help you decide how hot, cold, wet, or windy it might be!

Date:

Astronomy

Jan. 24, 2013 Rise Set
Actual Time 7:08 AM CST 5:41 PM CST
Civil Twilight 6:43 AM CST 6:07 PM CST
Nautical Twilight 6:13 AM CST 6:36 PM CST
Astronomical Twilight 5:44 AM CST 7:05 PM CST
Moon 3:46 PM CST (1/24) 5:04 AM CST (1/24)
Length of Visible Light 11h 24m
Length of Day
10h 32m
Waxing Gibbous, 94% of the Moon is Illuminated
Jan 24
Waxing Gibbous
Jan 26
Full
Feb 3
Last Quarter
Feb 10
New
Feb 17
First Quarter

Hourly Weather History & Observations

Time (CST) Temp. Dew Point Humidity Pressure Visibility Wind Dir Wind Speed Gust Speed Precip Events Conditions
12:51 AM 55.4 °F 53.6 °F 94% 30.25 in 10.0 mi South 3.5 mph - N/A   Scattered Clouds
12:55 AM 55.9 °F 53.1 °F 90% 30.26 in 10.0 mi South 4.6 mph - N/A   Mostly Cloudy
1:55 AM 55.9 °F 53.1 °F 90% 30.26 in 10.0 mi South 4.6 mph - N/A   Scattered Clouds
2:55 AM 55.9 °F 54.0 °F 93% 30.25 in 10.0 mi SSW 4.6 mph - N/A   Scattered Clouds
3:13 AM 55.4 °F 53.6 °F 94% 30.25 in 10.0 mi Calm Calm - N/A   Mostly Cloudy
3:55 AM 55.9 °F 54.0 °F 93% 30.25 in 10.0 mi Calm Calm - N/A   Mostly Cloudy
4:55 AM 55.9 °F 55.0 °F 97% 30.27 in 9.0 mi Calm Calm - N/A   Overcast
5:48 AM 55.4 °F 53.6 °F 94% 30.27 in 9.0 mi SSE 3.5 mph - N/A   Overcast
5:55 AM 55.0 °F 54.0 °F 96% 30.28 in 8.0 mi SSE 3.5 mph - N/A   Overcast
6:55 AM 55.0 °F 54.0 °F 96% 30.29 in 6.0 mi Calm Calm - N/A   Mostly Cloudy
7:21 AM 55.4 °F 53.6 °F 94% 30.28 in 3.0 mi Calm Calm - N/A   Mostly Cloudy
7:32 AM 55.4 °F 53.6 °F 94% 30.27 in 2.0 mi South 3.5 mph - N/A   Scattered Clouds
7:41 AM 55.4 °F 55.4 °F 100% 30.28 in 3.0 mi Calm Calm - N/A   Mostly Cloudy
7:51 AM 55.4 °F 55.4 °F 100% 30.28 in 3.0 mi Calm Calm - N/A   Mostly Cloudy
7:55 AM 55.9 °F 55.0 °F 97% 30.29 in 3.0 mi Calm Calm - N/A   Mostly Cloudy
8:19 AM 57.2 °F 55.4 °F 94% 30.28 in 4.0 mi Calm Calm - N/A   Overcast
8:55 AM 59.0 °F 57.0 °F 93% 30.31 in 8.0 mi Variable 4.6 mph - N/A   Overcast
9:55 AM 62.1 °F 57.9 °F 86% 30.32 in 10.0 mi SW 3.5 mph - N/A   Overcast
10:19 AM 64.4 °F 59.0 °F 83% 30.30 in 10.0 mi WSW 6.9 mph - N/A   Overcast
10:36 AM 64.4 °F 60.8 °F 88% 30.30 in 10.0 mi SSW 8.1 mph - N/A   Overcast
10:55 AM 66.0 °F 60.1 °F 81% 30.31 in 10.0 mi SW 3.5 mph - N/A   Overcast
11:15 AM 66.2 °F 60.8 °F 83% 30.29 in 10.0 mi WSW 5.8 mph - N/A   Overcast
11:55 AM 66.9 °F 60.1 °F 79% 30.29 in 10.0 mi WSW 5.8 mph - N/A   Overcast
12:55 PM 66.9 °F 60.1 °F 79% 30.25 in 10.0 mi WSW 3.5 mph - N/A   Overcast
1:41 PM 69.8 °F 60.8 °F 73% 30.21 in 10.0 mi SSW 10.4 mph - N/A   Overcast
1:55 PM 70.0 °F 60.1 °F 71% 30.21 in 10.0 mi SW 8.1 mph 17.3 mph N/A   Overcast
2:55 PM 71.1 °F 59.0 °F 66% 30.20 in 10.0 mi SW 9.2 mph - N/A   Mostly Cloudy
3:50 PM 71.6 °F 59.0 °F 64% 30.18 in 10.0 mi SW 4.6 mph - N/A   Overcast
3:55 PM 72.0 °F 59.0 °F 64% 30.19 in 10.0 mi SW 8.1 mph - N/A   Mostly Cloudy
4:55 PM 70.0 °F 60.1 °F 71% 30.19 in 10.0 mi South 6.9 mph - N/A   Overcast
5:55 PM 68.0 °F 60.1 °F 76% 30.20 in 10.0 mi South 5.8 mph - N/A   Overcast
6:55 PM 64.9 °F 60.1 °F 84% 30.21 in 10.0 mi South 5.8 mph - N/A   Mostly Cloudy
7:55 PM 64.0 °F 59.0 °F 84% 30.21 in 10.0 mi South 9.2 mph - N/A   Partly Cloudy
8:34 PM 62.6 °F 59.0 °F 88% 30.19 in 10.0 mi South 10.4 mph - N/A   Mostly Cloudy
8:55 PM 63.0 °F 59.0 °F 87% 30.20 in 10.0 mi South 9.2 mph - N/A   Scattered Clouds
9:14 PM 62.6 °F 59.0 °F 88% 30.19 in 10.0 mi South 10.4 mph - N/A   Mostly Cloudy
9:55 PM 63.0 °F 57.9 °F 84% 30.20 in 10.0 mi South 9.2 mph - N/A   Overcast
10:55 PM 62.1 °F 57.9 °F 86% 30.20 in 10.0 mi South 8.1 mph - N/A   Overcast
11:55 PM 61.0 °F 57.9 °F 90% 30.19 in 10.0 mi South 6.9 mph - N/A   Overcast